Regional Weather Roundup
Issued by NWS

Home | Current Version | Previous Version | Text Only | Print | Product List | Glossary Off
Versions: 1 2 3 4 5 6 7 8 9 10 11 12 13 14 15 16 17 18 19 20 21 22 23 24 25 26 27

000
ASUS45 KSLC 311910
RWRUT

UTAH REGIONAL WEATHER ROUNDUP
NATIONAL WEATHER SERVICE SALT LAKE CITY UT
100 PM MDT FRI OCT 31 2014

UTZ001>011-023>025-312000-

NORTHERN UTAH

CITY           SKY/WX    TMP DP  RH WIND       PRES   REMARKS
BRIGHAM CITY   SUNNY     68  26  20 CALM      29.95F
HILL AFB       SUNNY     70  26  18 S9G20     29.96F
LOGAN          SUNNY     69  28  21 S7        29.95F
OGDEN          SUNNY     72  23  16 S16       29.94F
PROVO AIRPORT  NOT AVBL
SALT LAKE CITY MOSUNNY   74  22  14 S23G31    29.92F
VERNAL         SUNNY     55  28  35 VRB5      30.14F
WENDOVER       PTSUNNY   55  28  35 SE5       29.95F
HEBER CITY     MOSUNNY   64  28  25 CALM      30.03F
WEST JORDAN    SUNNY     70  36  28 S18       29.98F

$$

UTZ012>022-026-027-312000-

SOUTHERN/CENTRAL UTAH

CITY           SKY/WX    TMP DP  RH WIND       PRES   REMARKS
BLANDING       MOSUNNY   63  25  23 SE13      30.30F
BRYCE CANYON   SUNNY     56  22  26 SE15      30.22F
CEDAR CITY     LGT RAIN  71  30  21 S24G35    30.03F
DELTA          SUNNY     72  25  17 S18       29.99F
HANKSVILLE       N/A     54  21  28 SW5       30.16F
MILFORD        SUNNY     73  32  22 S21       30.00F
MOAB/CYNLANDS  SUNNY     65  25  22 N7        30.11F
PRICE          MOSUNNY   59  20  22 SE12      30.16F
ST GEORGE      PTCLDY    73  28  19 W7        29.96F
KANAB            N/A     72  28  20 NE9       30.10F

$$

REGIONAL REPORTS     COLORADO/ARIZONA

CITY           SKY/WX    TMP DP  RH WIND       PRES   REMARKS
CRAIG, CO      PTSUNNY   64  27  24 NE5       30.16F
GRAND JUNCTION PTSUNNY   63  25  23 SE5       30.13F
RIFLE          MOSUNNY   58  25  28 CALM      30.18F
MONTROSE       PTSUNNY   57  26  30 N8        30.20F
CORTEZ         SUNNY     66  25  21 SE12      30.24F
PAGE, AZ       MOSUNNY   61  25  25 CALM      30.10F
GRAND CANYON   SUNNY     70  34  26 S16G25    30.17F
KINGMAN        SUNNY     79  37  22 SW14      29.97F
FLAGSTAFF      SUNNY     66  35  31 SW13G24   30.21F

$$

REGIONAL REPORTS    NEVADA/IDAHO/WYOMING

CITY           SKY/WX    TMP DP  RH WIND       PRES   REMARKS
LAS VEGAS, NV  MOSUNNY   77  32  19 VRB3      29.86F
ELY            MOSUNNY   65  26  23 S28G37    29.99F
ELKO           CLOUDY    64  22  20 S22G29    29.89F
POCATELLO, ID  SUNNY     72  23  16 S25G35    29.89F
BURLEY         PTSUNNY   61  33  35 SE5       29.87F
EVANSTON, WY   MOSUNNY   63  20  19 SW20G26   30.08F
ROCK SPRINGS   MOSUNNY   56  28  34 N3        30.12F
KEMMERER       SUNNY     57  27  30 S9        30.11F

$$



USA.gov is the U.S. government's official web portal to all federal, state and local government web resources and services.